Weather Roundup
Issued by NWS Chicago, IL

Home | Current Version | Previous Version | Text Only | Print | Product List | Glossary Off
Versions: 1 2 3 4 5 6 7 8 9 10 11 12 13 14 15 16 17 18 19 20 21 22 23 24 25 26 27 28 29 30 31 32 33 34 35 36 37 38 39 40 41 42 43 44 45 46 47 48 49 50

000
NZUS59 KLOT 010108
HRRLOT

CHICAGO AREA WEATHER ROUNDUP
NATIONAL WEATHER SERVICE CHICAGO/ROMEOVILLE IL
800 PM CDT SAT APR 30 2016

NOTE: "FAIR" INDICATES FEW OR NO CLOUDS BELOW 12,000 FEET WITH NO
SIGNIFICANT WEATHER AND/OR OBSTRUCTIONS TO VISIBILITY.

* THESE STATIONS ARE NOT UNDER NWS QUALITY CONTROL. THEY ALSO MAY NOT
  REPORT WEATHER SUCH AS PRECIPITATION OR FOG.

ILZ005-006-012>014-019>023-010200-
NORTHEAST ILLINOIS

CITY           SKY/WX    TMP DP  RH WIND       PRES   REMARKS
OHARE          LGT RAIN  45  43  93 NE15      29.92S FOG
MIDWAY         LGT RAIN  47  43  86 NE16      29.91S FOG
AURORA         CLOUDY    46  44  93 NE22G29   29.90R FOG
LANSING*       DRIZZLE   47  46  98 NE8       29.90R
JOLIET*        DRIZZLE   47  46  96 NE10G22   29.89S
WAUKEGAN       CLOUDY    44  42  93 NE13G21   29.95R
DUPAGE AIRPORT LGT RAIN  45  42  89 NE14G25   29.91R FOG
WHEELING       LGT RAIN  44  43  96 NE14G23   29.95S FOG
KANKAKEE*      CLOUDY    49  47  96 NE9       29.87R FOG
MORRIS*        DRIZZLE   47  46  95 NE10G16   29.87S
LEWIS AIRPORT* DRIZZLE   46  43  92 E16       29.89S
$$

WIZ051-052-058>065-066-070>072-010200-
SOUTHEAST WISCONSIN

CITY           SKY/WX    TMP DP  RH WIND       PRES   REMARKS
MILWAUKEE      LGT RAIN  42  39  89 NE15      30.00F
KENOSHA*       CLOUDY    43  41  93 NE15      29.96F
RACINE*        LGT RAIN  43  40  89 NE15      30.00F
BURLINGTON     LGT RAIN  41  40  97 N12       29.99R
WAUKESHA       RAIN      39  39 100 N9G17     30.02S FOG
WEST BEND      RAIN      41  37  87 NE9       30.05R
$$

INZ001>003-010>013-019-020-010200-
NORTHWEST INDIANA

CITY           SKY/WX    TMP DP  RH WIND       PRES   REMARKS
GARY*          RAIN      48  48 100 E14       29.91S
MICHIGAN CITY* NOT AVBL
RENSSELAER*    NOT AVBL
VALPARAISO     LGT RAIN  48  47  96 NE12      29.89S FOG
$$

LMZ740>746-010200-
SOUTHERN LAKE MICHIGAN

STATION/POSITION TIME  SKY/WX   TEMP WIND        PRES    VSBY
                                AIR  DIR/SP/G
                 (UTC)          (F)  (DEG/KT/KT) (MB)    (MI)
HARRISON CRIB    0000            45   50/ 24/ 27   N/A
BURNHAM HARBOR   0100            45   30/ 14/ 20   N/A
CALUMET HARBOR   0000            45              1012.5
BURNS HARBOR     0008            49   50/ 14/ 15 1012.9S
MICHIGAN CITY    0000            48   50/ 11/ 14   N/A
$$

ABBREVIATIONS USED IN REMARKS
   TC - TEMPERATURE IN CELSIUS
  WCI - WIND CHILL INDEX
   HX - HEAT INDEX
  VSB - VISIBILITY
$$




USA.gov is the U.S. government's official web portal to all federal, state and local government web resources and services.